DW2465 Weather Reports


time (UTC)temp
F
wind
direction
speed
knots
gust
knots
rain 1hr
in
rain 24hr
in
rain mn
in
humidity
%
barometer
mb
20260905071504 65 51 0.0 0.0 0.00 0.00 0.00 94 1013.4
20260905070100 65 31 0.0 0.0 0.00 0.00 0.00 94 1013.5
20260905064600 64 19 0.0 0.0 0.00 0.00 0.00 93 1013.6
20260905063100 64 14 0.0 0.0 0.00 0.00 0.00 93 1013.3
20260905061605 65 26 0.0 0.0 0.00 0.00 0.00 92 1013.1
20260905060104 65 11 0.0 0.0 0.00 0.00 0.00 91 1013.4
20260905054600 66 24 0.0 0.0 0.00 0.00 0.00 90 1013.3
20260905053048 67 25 0.0 0.0 0.00 0.00 0.00 90 1013.3
20260905051603 67 21 0.0 0.0 0.00 0.00 0.00 89 1013.0
20260905050041 67 20 0.0 0.0 0.00 0.00 0.00 88 1012.8
20260905044543 68 26 0.0 0.0 0.00 0.00 0.00 88 1012.6
20260905043040 68 360 0.0 0.0 0.00 0.00 0.00 87 1012.7
20260905041535 69 41 0.0 0.0 0.00 0.00 0.00 85 1012.8
20260905040031 70 28 0.0 0.0 0.00 0.00 0.00 85 1012.9
20260905034529 70 18 0.0 0.0 0.00 0.00 0.00 84 1012.6
20260905033025 71 23 0.0 0.0 0.00 0.00 0.00 83 1012.6
20260905031536 72 68 0.0 0.0 0.00 0.00 0.00 81 1012.4
20260905024603 73 46 0.0 0.0 0.00 0.00 0.00 80 1012.3
20260905023051 74 18 0.0 0.0 0.00 0.00 0.00 79 1012.0
20260905021546 75 27 0.0 0.0 0.00 0.00 0.00 79 1011.9
20260905020044 75 40 0.0 0.0 0.00 0.00 0.00 78 1011.7
20260905014543 76 30 0.0 0.0 0.00 0.00 0.00 78 1011.5
20260905013052 77 24 0.0 0.0 0.00 0.00 0.00 76 1011.6
20260905011536 77 14 0.0 0.0 0.00 0.00 0.00 75 1011.4
20260905010035 78 355 0.0 0.0 0.00 0.00 0.00 73 1011.3
20260905004534 80 355 0.0 0.0 0.00 0.00 0.00 72 1011.2
20260905003030 81 29 0.0 0.0 0.00 0.00 0.00 71 1011.1
20260905001529 82 29 0.0 0.0 0.00 0.00 0.00 69 1011.0
20260905000030 82 29 0.0 0.0 0.00 0.00 0.00 67 1010.8
20260904234529 82 30 0.0 0.0 0.00 0.00 0.00 67 1010.7
20260904233056 83 26 0.0 0.0 0.00 0.00 0.00 66 1010.8
20260904231555 83 360 0.0 0.0 0.00 0.00 0.00 67 1010.7
20260904230105 83 18 0.0 0.0 0.00 0.00 0.00 67 1010.5
20260904224551 83 347 0.0 0.0 0.00 0.00 0.00 68 1010.4
20260904223105 83 19 0.0 0.0 0.00 0.00 0.00 68 1010.2
20260904221553 83 343 0.0 0.0 0.00 0.00 0.00 69 1010.2
20260904220016 82 344 0.0 0.0 0.00 0.00 0.00 70 1010.0
20260904214515 83 5 0.0 0.0 0.00 0.00 0.00 70 1010.0
20260904213010 82 41 0.0 0.0 0.00 0.00 0.00 71 1010.0
20260904211507 82 14 0.0 0.0 0.00 0.00 0.00 72 1009.9
20260904210006 82 360 0.0 0.0 0.00 0.00 0.00 72 1010.1
20260904204503 81 360 0.0 0.0 0.00 0.00 0.00 73 1010.1
20260904203032 80 342 0.0 0.0 0.00 0.00 0.00 74 1010.0
20260904201538 80 27 0.0 0.0 0.00 0.00 0.00 77 1010.2
20260904200039 79 5 0.0 0.0 0.00 0.00 0.00 79 1010.2
20260904194523 79 55 0.0 0.0 0.00 0.00 0.00 79 1010.3
20260904193025 78 65 0.0 0.0 0.00 0.00 0.00 80 1010.4
20260904191520 78 5 0.0 0.0 0.00 0.00 0.00 81 1010.4
20260904190015 77 34 0.0 0.0 0.00 0.09 0.00 83 1010.3
20260904184515 77 19 0.0 0.0 0.00 0.09 0.00 84 1010.3
20260904183015 76 24 0.0 0.0 0.00 0.09 0.00 85 1010.4
20260904181513 76 346 0.0 0.0 0.00 0.09 0.00 86 1010.4
20260904180013 75 345 0.0 0.0 0.00 0.09 0.00 87 1010.4
20260904174546 75 326 0.0 0.0 0.00 0.09 0.00 88 1010.4
20260904173045 75 344 0.0 0.0 0.00 0.09 0.00 90 1010.4
20260904171605 74 48 0.0 0.0 0.00 0.09 0.00 91 1010.3
20260904170035 74 14 0.0 0.0 0.00 0.09 0.00 91 1010.2
20260904164535 73 346 0.0 0.0 0.00 0.09 0.00 92 1009.9
20260904163047 73 348 0.0 0.0 0.00 0.09 0.00 94 1009.7
20260904161530 72 315 0.0 0.0 0.00 0.09 0.00 94 1009.7
20260904160029 72 344 0.0 0.0 0.00 0.09 0.00 94 1009.5
20260904154528 73 328 0.0 0.0 0.00 0.09 0.00 94 1009.3
20260904153032 73 329 0.0 0.0 0.00 0.09 0.00 94 1009.1
20260904151534 74 346 0.0 0.0 0.00 0.09 0.00 95 1008.9
20260904150023 74 24 0.0 0.0 0.00 0.09 0.00 95 1008.8
20260904144520 73 24 0.0 0.0 0.00 0.09 0.00 96 1008.6
20260904143017 73 24 0.0 0.0 0.00 0.09 0.00 96 1008.4
20260904141516 73 24 0.0 0.0 0.00 0.09 0.00 96 1008.4
20260904140015 72 24 0.0 0.0 0.00 0.09 0.00 96 1008.5
20260904134520 72 24 0.0 0.0 0.00 0.09 0.00 96 1008.4
20260904133012 72 24 0.0 0.0 0.00 0.09 0.00 95 1008.3
20260904131509 71 24 0.0 0.0 0.00 0.09 0.00 95 1008.4
20260904130007 71 24 0.0 0.0 0.00 0.09 0.00 95 1008.3
20260904124505 71 24 0.0 0.0 0.00 0.09 0.00 95 1008.1
20260904123005 71 24 0.0 0.0 0.00 0.09 0.00 95 1008.0
20260904121533 71 26 0.0 0.0 0.00 0.09 0.00 95 1007.6
20260904120042 71 113 0.0 0.0 0.00 0.09 0.00 95 1007.5
20260904114528 72 355 0.0 0.0 0.00 0.09 0.00 95 1007.6
20260904113025 72 5 0.0 0.0 0.00 0.09 0.00 95 1007.2
20260904111524 73 17 0.0 0.0 0.00 0.09 0.00 94 1007.2
20260904110025 73 5 0.0 0.0 0.00 0.09 0.00 94 1007.1
20260904104553 73 5 0.0 0.0 0.00 0.09 0.00 94 1007.0
20260904103051 73 5 0.0 0.0 0.00 0.09 0.00 94 1007.0
20260904101522 74 5 0.0 0.0 0.00 0.09 0.00 93 1006.9
20260904100019 74 5 0.0 0.0 0.00 0.09 0.00 93 1007.0
20260904094515 74 355 0.0 0.0 0.00 0.09 0.00 93 1007.1
20260904093013 75 160 0.0 0.0 0.00 0.09 0.00 92 1006.7
20260904091513 75 160 0.0 0.0 0.00 0.09 0.00 92 1006.6
20260904090020 75 160 0.0 0.0 0.00 0.09 0.00 92 1006.6
20260904084548 75 160 0.0 0.0 0.00 0.09 0.00 92 1006.5
20260904083040 75 160 0.0 0.0 0.00 0.09 0.00 92 1006.4
20260904081535 75 160 0.0 0.0 0.00 0.09 0.00 91 1006.4
20260904080050 76 160 0.0 0.0 0.00 0.09 0.00 90 1006.3
20260904074537 76 160 0.0 0.0 0.00 0.09 0.00 90 1006.4
20260904073032 76 160 0.0 0.0 0.00 0.09 0.00 90 1006.5